Baton Rouge, LA

12:06 AM CST on December 11, 2017 (GMT -0600)
Baton Rouge Metro-Ryan

Weather History for KBTR - April, 2013

Change the Weather History Date:

Tuesday, April 9, 2013

  Actual Average Record
Temperature  
Mean Temperature 79 °F 66 °F  
Max Temperature 87 °F 78 °F 89 °F (1946)
Min Temperature 71 °F 55 °F 35 °F (2000)
Degree Days  
Heating Degree Days 0 2  
Month to date heating degree days 34 26  
Since 1 July heating degree days 1482 1528  
Cooling Degree Days 14 4  
Month to date cooling degree days 21 30  
Year to date cooling degree days 65 119  
Growing Degree Days 28 (Base 50)    
Moisture  
Dew Point 68 °F    
Average Humidity 76    
Maximum Humidity 93    
Minimum Humidity 59    
Precipitation  
Precipitation 0.00 in 0.16 in 2.64 in (1955)
Month to date precipitation 1.25 1.40  
Year to date precipitation 26.20 16.57  
Snow  
Snow 0.00 in - - ()
Month to date snowfall 0.0  
Since 1 July snowfall 0.0  
Snow Depth 0.00 in    
Sea Level Pressure  
Sea Level Pressure 29.93 in    
Wind  
Wind Speed 13 mph (SE)    
Max Wind Speed 25 mph    
Max Gust Speed 31 mph    
Visibility 10 miles    
Events      
T = Trace of Precipitation, MM = Missing Value Source: NWS Daily Summary

Daily Weather History Graph

Daily Weather History Graph

Search for Another Location

Airport or City:

Trip Planner

Search our weather history database for the weather conditions in past years. The results will help you decide how hot, cold, wet, or windy it might be!

Date:

Astronomy

Apr. 09, 2013 Rise Set
Actual Time 6:43 AM CDT 7:28 PM CDT
Civil Twilight 6:19 AM CDT 7:53 PM CDT
Nautical Twilight 5:50 AM CDT 8:22 PM CDT
Astronomical Twilight 5:21 AM CDT 8:51 PM CDT
Moon 6:04 AM CDT (4/9) 7:04 PM CDT (4/9)
Length of Visible Light 13h 33m
Length of Day
12h 44m
Waning Crescent, 1% of the Moon is Illuminated
Apr 9
Waning Crescent
Apr 10
New
Apr 18
First Quarter
Apr 25
Full
May 2
Last Quarter

Hourly Weather History & Observations

Time (CDT) Temp. Heat Index Dew Point Humidity Pressure Visibility Wind Dir Wind Speed Gust Speed Precip Events Conditions
12:53 AM 71.1 °F - 66.0 °F 84% 29.93 in 10.0 mi SE 9.2 mph - N/A   Scattered Clouds
1:53 AM 71.1 °F - 66.9 °F 87% 29.91 in 10.0 mi SE 5.8 mph - N/A   Mostly Cloudy
2:53 AM 71.1 °F - 66.9 °F 87% 29.89 in 10.0 mi ESE 6.9 mph - N/A   Mostly Cloudy
3:10 AM 71.6 °F - 66.2 °F 83% 29.89 in 10.0 mi SE 8.1 mph - N/A   Scattered Clouds
3:53 AM 71.1 °F - 68.0 °F 90% 29.89 in 10.0 mi SE 9.2 mph - N/A   Mostly Cloudy
4:16 AM 71.6 °F - 68.0 °F 88% 29.89 in 10.0 mi SE 9.2 mph - N/A   Overcast
4:53 AM 72.0 °F - 68.0 °F 87% 29.89 in 10.0 mi SE 9.2 mph - N/A   Overcast
5:53 AM 71.1 °F - 68.0 °F 90% 29.92 in 10.0 mi SE 6.9 mph - N/A   Overcast
6:53 AM 71.1 °F - 68.0 °F 90% 29.94 in 10.0 mi SE 6.9 mph - N/A   Overcast
7:29 AM 71.6 °F - 68.0 °F 88% 29.94 in 9.0 mi SE 6.9 mph - N/A   Mostly Cloudy
7:53 AM 72.0 °F - 69.1 °F 91% 29.94 in 9.0 mi SE 6.9 mph - N/A   Overcast
8:53 AM 73.9 °F - 69.1 °F 85% 29.96 in 10.0 mi SE 8.1 mph - N/A   Overcast
9:53 AM 77.0 °F - 69.1 °F 76% 29.96 in 10.0 mi SSE 13.8 mph 25.3 mph N/A   Overcast
10:53 AM 80.1 °F 82.9 °F 69.1 °F 69% 29.97 in 10.0 mi SSE 16.1 mph 27.6 mph N/A   Mostly Cloudy
11:53 AM 81.0 °F 84.1 °F 69.1 °F 67% 29.98 in 10.0 mi South 20.7 mph 31.1 mph N/A   Mostly Cloudy
12:53 PM 82.9 °F 86.5 °F 69.1 °F 63% 29.96 in 10.0 mi SSE 17.3 mph 28.8 mph N/A   Mostly Cloudy
1:00 PM 82.4 °F 85.4 °F 68.0 °F 62% 29.96 in 10.0 mi South 19.6 mph 28.8 mph N/A   Mostly Cloudy
1:53 PM 84.9 °F 88.8 °F 69.1 °F 59% 29.94 in 10.0 mi South 23.0 mph 28.8 mph N/A   Mostly Cloudy
2:53 PM 84.0 °F 87.0 °F 68.0 °F 58% 29.93 in 10.0 mi SSE 15.0 mph 27.6 mph N/A   Mostly Cloudy
3:53 PM 82.9 °F 85.8 °F 68.0 °F 60% 29.92 in 10.0 mi SSE 18.4 mph 28.8 mph N/A   Mostly Cloudy
4:53 PM 82.0 °F 84.9 °F 68.0 °F 62% 29.92 in 10.0 mi South 13.8 mph 27.6 mph N/A   Partly Cloudy
5:53 PM 80.1 °F 82.7 °F 68.0 °F 67% 29.94 in 10.0 mi South 18.4 mph 24.2 mph N/A   Scattered Clouds
6:53 PM 79.0 °F - 68.0 °F 69% 29.93 in 10.0 mi SSE 13.8 mph - N/A   Scattered Clouds
7:53 PM 78.1 °F - 70.0 °F 76% 29.93 in 10.0 mi ESE 15.0 mph 23.0 mph N/A   Mostly Cloudy
8:49 PM 75.2 °F - 69.8 °F 83% 29.96 in 10.0 mi SE 13.8 mph - N/A   Overcast
8:53 PM 75.9 °F - 70.0 °F 82% 29.95 in 10.0 mi SE 15.0 mph 21.9 mph N/A   Overcast
9:53 PM 75.0 °F - 70.0 °F 84% 29.95 in 10.0 mi SE 15.0 mph 26.5 mph N/A   Mostly Cloudy
10:53 PM 75.0 °F - 69.1 °F 82% 29.95 in 10.0 mi SE 15.0 mph 20.7 mph N/A   Partly Cloudy
11:48 PM 75.2 °F - 69.8 °F 83% 29.95 in 10.0 mi SE 10.4 mph 20.7 mph N/A   Overcast
11:53 PM 75.0 °F - 69.1 °F 82% 29.95 in 10.0 mi SE 12.7 mph - N/A   Overcast